Location: Pevensey Bay
(50.8000°N, 0.3667°E)
Time: 05:33:40
(UTC+00:00)

Daily predictions for brighter satellites

Satellite Brightness Start Highest point End
(mag) Time Altitude Azimuth Time Altitude Azimuth Time Altitude Azimuth
Cosmos 1461 4.0 00:00:59 10° NW 00:03:30 37° NNW 00:03:30 37° NNW
Cosmos 158 Rocket 4.0 00:05:02 64° WNW 00:05:09 64° WNW 00:10:12 10° NNE
Cosmos 1844 Rocket 4.0 00:01:26 10° NW 00:05:29 25° W 00:05:29 25° W
Cosmos 1943 Rocket 3.8 00:01:07 10° NNW 00:06:08 31° NE 00:10:24 13° ESE
Lacrosse 4 Rocket 4.0 00:03:39 10° WNW 00:06:18 17° NNW 00:08:57 10° N
SL-16 R/B 3.3 00:06:04 26° W 00:08:34 38° NW 00:13:52 10° NNE
ATLAS 5 CENTAUR R/B 3.7 00:06:02 10° NNW 00:09:56 29° NNE 00:14:35 10° E
Meteor 2-21 Rocket 4.4 00:10:44 63° SW 00:11:41 76° WNW 00:17:56 10° N
RESURS DK-1 4.4 00:13:30 20° ENE 00:13:30 20° ENE 00:15:20 10° NE
Cosmos 972 Rocket 4.5 00:12:33 47° E 00:12:33 47° E 00:17:01 10° NNE
Cosmos 1867 3.5 00:10:10 10° NW 00:15:26 73° WSW 00:15:26 73° WSW
NOSS 2-2 (D) 4.0 00:13:40 10° NW 00:17:42 63° NE 00:18:12 58° ENE
USA 32 3.9 00:20:05 81° WSW 00:20:11 82° W 00:25:27 10° N
Cosmos 2344 4.1 00:19:46 10° NW 00:27:51 77° NE 00:38:53 10° SE
Aureole 3 Rocket 4.2 00:26:58 10° NNW 00:29:21 31° NW 00:29:21 31° NW
Tsikada Rocket 3.8 00:30:35 65° SSW 00:31:33 82° W 00:37:45 10° N
USA 215 4.3 00:28:48 10° ENE 00:34:07 27° SE 00:34:07 27° SE
Cosmos 1536 4.5 00:32:00 10° NNE 00:35:17 26° ENE 00:35:23 26° ENE
Lacrosse 5 2.6 00:35:37 27° W 00:38:08 52° NNW 00:43:09 10° ENE
NOSS 2-3 (C) 4.4 00:37:00 10° NW 00:42:30 87° SW 00:45:10 41° SE
ATLAS 3B R/B 4.3 00:35:50 10° NW 00:43:01 39° NNE 00:50:19 10° E
NOSS 0 Rocket 4.3 00:45:55 44° SE 00:46:43 47° ESE 00:52:35 10° NE
NOSS 2-3 (D) 4.4 00:42:05 10° NW 00:47:34 86° SW 00:50:20 39° SE
NOSS 3-4 (A) 3.8 00:51:31 35° W 00:53:41 55° NW 00:59:50 10° NE
NOSS 3-4 (C) 3.8 00:51:35 36° W 00:53:43 55° NW 00:59:53 10° NE
Cosmos 1766 Rocket 4.1 00:52:21 10° NNW 00:55:54 51° NW 00:55:54 51° NW
Gbstr 26 Del rocket 3.4 00:57:33 57° ENE 00:57:33 57° ENE 01:00:48 10° ENE
H-2A R/B 3.4 00:53:56 10° N 00:57:34 28° WNW 00:57:39 28° WNW
Cosmos 2237 Rocket 2.9 00:59:39 39° SE 01:00:26 41° ESE 01:05:44 10° NE
IDEFIX/ARIANE 42P 3.9 00:57:59 10° NNE 01:02:30 29° E 01:03:55 26° ESE
Cosmos 1980 4.2 01:02:36 43° SE 01:03:22 45° ESE 01:08:44 10° NE
NOSS 2-2 (C) 4.0 01:01:13 10° NW 01:04:40 57° W 01:04:40 57° W
CZ-2D R/B 3.7 01:03:49 10° NE 01:08:22 27° E 01:10:23 21° SE
Cosmos 1634 Rocket 4.3 01:02:29 10° NNW 01:08:32 49° W 01:09:31 45° WSW
USA 267 3.4 01:04:26 10° ESE 01:10:56 75° NNE 01:17:28 10° WNW
Cosmos 44 Rocket 4.4 01:09:34 30° W 01:11:25 41° NW 01:16:16 10° NNE
Cosmos 2360 Rocket 3.8 01:10:54 19° W 01:13:46 28° NW 01:18:37 10° NNE
COSMOS 2428 2.7 01:13:37 57° SW 01:14:44 75° WNW 01:20:27 10° NNE
Cosmos 1743 Rocket 4.4 01:12:13 10° N 01:16:23 45° ENE 01:17:16 39° ESE
Meteor 2-6 Rocket 4.2 01:15:50 58° SSW 01:17:05 84° W 01:22:59 10° NNE
Cosmos 2180 Rocket 4.4 01:11:54 10° NNW 01:18:17 78° W 01:19:59 51° S
Cosmos 1726 3.3 01:15:58 10° N 01:17:55 34° N 01:17:55 34° N
Resurs 1-4 Rocket 3.3 01:15:40 10° NNE 01:20:27 34° E 01:22:17 27° SE
Helios 1A Rocket 4.1 01:22:22 31° WNW 01:22:22 31° WNW 01:24:56 10° NNW
Cosmos 2322 4.1 01:21:01 44° WSW 01:22:31 57° NW 01:28:11 10° NNE
Cosmos 2219 Rocket 3.2 01:23:12 28° W 01:25:13 37° NW 01:30:25 10° NNE
IRIDIUM 104 4.2 01:20:47 10° N 01:26:02 82° W 01:26:54 63° SSW
Cosmos 2221 3.5 01:26:50 34° WNW 01:26:50 34° WNW 01:30:38 10° N
Cosmos 1743 4.4 01:23:24 10° NNW 01:25:19 23° NW 01:25:19 23° NW
Cosmos 2322 Rocket 4.3 01:26:24 10° W 01:30:30 20° NW 01:34:36 10° NNE
Cosmos 2278 Rocket 2.3 01:26:39 10° NW 01:32:10 51° WSW 01:32:30 51° SW
IRIDIUM 114 4.3 01:29:57 10° N 01:35:11 70° W 01:36:02 58° SW
USA 290 4.3 01:35:57 10° N 01:38:48 27° ENE 01:40:17 19° E
Meteor 2-10 4.3 01:35:55 10° N 01:41:39 79° ENE 01:44:15 34° SSE
Cosmos 1420 Rocket 4.0 01:36:22 10° NNW 01:41:40 81° ENE 01:44:11 32° SSE
Cosmos 2333 Rocket 4.0 01:38:16 13° W 01:41:49 23° NW 01:46:17 10° NNE
Cosmos 1680 Rocket 4.0 01:42:34 40° SSE 01:44:06 53° ESE 01:49:17 10° NNE
IRIDIUM 103 4.4 01:39:10 10° N 01:44:18 59° W 01:45:10 51° SW
ADEOS II 3.3 01:39:58 10° NNE 01:44:45 34° E 01:47:24 22° SE
Cosmos 1538 Rocket 4.3 01:46:20 44° WSW 01:47:40 57° WNW 01:52:55 10° NNE
RESURS DK-1 3.1 01:49:06 40° WNW 01:49:31 41° NW 01:53:24 10° NNE
Cosmos 1943 Rocket 2.2 01:44:41 10° NW 01:50:17 62° WSW 01:51:51 45° S
ATLAS 2AS CENTAUR R/B 3.3 01:49:36 32° S 01:52:44 50° ESE 01:59:36 10° NE
Nadezhda 4 Rocket 3.9 01:50:48 43° SSW 01:52:57 79° W 01:59:07 10° N
ATLAS 5 CENTAUR R/B 1.9 01:49:30 10° NW 01:54:19 85° SW 02:00:18 10° SE
Cosmos 1408 Rocket 3.9 01:50:57 10° NNW 01:54:59 45° W 01:54:59 45° W
Cosmos 2056 Rocket 3.5 01:49:55 10° NNW 01:55:22 87° ENE 01:58:37 25° SSE
SL-16 R/B 3.3 01:54:58 24° SSE 01:57:32 36° ESE 02:02:41 10° NE
MOZ.5/SAFIR/RUBIN 5/SL-8 4.2 01:59:23 42° WSW 01:59:33 42° W 02:04:05 10° NNW
Sich 1 2.9 01:56:53 10° NNW 02:01:07 63° W 02:01:28 60° SW
GP-B 3.3 01:58:00 10° N 02:02:24 67° E 02:03:57 38° SSE
Cosmos 1340 Rocket 3.7 02:01:32 34° SE 02:02:37 42° E 02:06:21 10° NNE
CZ-2C R/B 2.6 02:00:14 29° SSE 02:03:07 88° ENE 02:08:26 10° NNW
Meteor 1-27 Rocket 3.7 02:01:01 40° S 02:03:12 89° ESE 02:08:50 10° NNE
Cosmos 1624 Rocket 3.9 02:00:04 10° NNW 02:05:19 81° WSW 02:08:03 29° SSE
GEOS 3 Rocket 3.6 02:00:20 10° SE 02:05:42 88° SW 02:11:03 10° NW
Okean 1 3.2 02:05:34 62° W 02:05:42 63° WNW 02:09:29 10° N
SL-16 R/B 2.8 02:00:54 10° SSE 02:07:02 68° ENE 02:13:16 10° NNW
ALOS 3.9 02:03:07 10° NE 02:07:07 28° E 02:10:17 14° SSE
NOSS 3-1 (A) 4.2 02:02:50 10° NW 02:09:49 73° NE 02:18:26 10° SE
NPP 3.6 02:04:35 10° NNE 02:10:01 86° WNW 02:12:10 38° SSW
Cosmos 1340 2.9 02:06:39 10° N 02:10:03 57° ENE 02:10:59 40° SE
Cosmos 1536 3.9 02:07:54 10° NNW 02:10:40 28° WNW 02:10:40 28° WNW
Cosmos 1805 3.2 02:08:38 10° N 02:12:22 74° E 02:13:21 46° SSE
Cosmos 1733 3.2 02:10:12 10° NNW 02:13:33 56° W 02:13:33 56° W
Cosmos 1500 Rocket 4.1 02:11:52 10° NNW 02:15:59 38° W 02:16:14 38° W
H-2A R/B 3.6 02:12:56 10° N 02:16:56 55° WNW 02:17:40 47° WSW
Cosmos 1805 Rocket 3.9 02:13:37 10° NNW 02:17:44 43° W 02:18:06 42° WSW
USA 215 3.2 02:11:24 10° ENE 02:17:58 77° SE 02:21:28 30° SW
Intercosmos 25 Rocket 4.3 02:15:28 10° N 02:19:16 58° E 02:25:06 10° SSE
Lacrosse 5 3.1 02:17:00 10° WNW 02:21:52 42° N 02:26:45 10° ENE
COSMOS 2441 4.4 02:17:18 10° NNE 02:22:13 76° ESE 02:24:29 32° S
Cosmos 1666 Rocket 3.6 02:18:04 10° N 02:22:33 79° ENE 02:25:08 24° SSE
Cosmos 923 Rocket 4.2 02:20:52 37° SW 02:22:51 63° WNW 02:28:08 10° NNE
Cosmos 1553 Rocket 4.2 02:17:10 10° N 02:23:25 70° ENE 02:29:32 10° SSE
Meteor 1-11 Rocket 4.3 02:18:45 10° NNW 02:23:46 36° W 02:25:03 32° WSW
NOSS 3-1 (C) 4.0 02:20:38 10° NW 02:27:47 66° SW 02:36:28 10° SSE
Kosmos-1783 4.5 02:34:29 21° N 02:34:29 21° N 02:35:40 10° NNE
ATLAS 3B R/B 3.0 02:26:55 10° NW 02:34:47 86° NE 02:42:37 10° SE
MSX 3.9 02:29:47 10° N 02:35:32 66° WNW 02:38:35 28° SW
Cosmos 1371 Rocket 4.3 02:32:39 10° NW 02:37:39 44° WSW 02:39:56 28° SSW
Cosmos 1656 Rocket 3.5 02:33:49 10° NNW 02:39:16 86° WSW 02:44:41 10° SSE
Cosmos 2026 Rocket 4.1 02:37:38 26° SSW 02:41:19 66° WNW 02:47:42 10° N
IDEFIX/ARIANE 42P 3.0 02:37:15 10° N 02:42:14 48° WNW 02:44:41 28° SW
Gbstr 26 Del rocket 2.8 02:39:46 15° W 02:43:21 82° N 02:47:12 10° E
Cosmos 2369 Rocket 2.2 02:38:02 10° NNW 02:43:41 83° ENE 02:49:17 10° SSE
Cosmos 1328 Rocket 3.6 02:41:11 25° S 02:43:45 77° E 02:48:12 10° NNE
USA 308 2.6 02:42:30 36° W 02:43:55 78° NNW 02:47:52 10° ENE
Cosmos 1626 2.4 02:42:31 26° SSE 02:44:03 53° E 02:47:17 10° NNE
Cosmos 2237 Rocket 2.9 02:41:27 24° WSW 02:44:30 43° NW 02:49:56 10° NNE
Cosmos 1092 Rocket 4.1 02:42:41 26° SSW 02:46:10 61° WNW 02:52:19 10° N
CZ-2C R/B 3.1 02:43:04 10° NNE 02:48:22 80° WNW 02:51:58 23° SSW
CZ-2D R/B 2.4 02:43:25 10° N 02:48:41 56° WNW 02:51:41 25° SW
Cosmos 1151 Rocket 3.5 02:47:22 31° WSW 02:48:54 44° WNW 02:53:05 10° N
Cosmos 1975 2.9 02:45:07 10° NNW 02:48:54 53° W 02:50:23 32° SSW
Cosmos 921 Rocket 3.0 02:48:29 31° SW 02:50:27 68° WNW 02:54:52 10° NNE
Cosmos 1633 Rocket 3.0 02:47:49 10° NNW 02:52:09 65° W 02:55:02 20° S
Cosmos 2297 3.7 02:46:33 10° NNW 02:52:17 69° WSW 02:57:58 10° SSE
SAR-Lupe-1 4.0 02:48:42 10° NNE 02:52:20 88° ESE 02:54:03 29° SSW
AQUA 3.8 02:49:01 10° NNE 02:53:46 79° WNW 02:56:41 23° SSW
USA 267 3.4 02:47:58 10° SSE 02:54:13 49° SW 03:00:31 10° WNW
SAR-Lupe-4 3.4 02:52:57 10° NNE 02:56:32 78° WNW 02:58:13 29° SSW
Resurs 1-4 Rocket 2.7 02:55:22 10° N 03:00:21 43° WNW 03:03:20 22° WSW
Cosmos 1766 3.0 02:59:58 10° N 03:03:40 87° W 03:07:19 10° S
Cosmos 494 Rocket 3.9 03:02:00 20° SSW 03:05:34 90° WNW 03:10:44 10° NNE
Meteor 2-4 Rocket 3.8 03:04:17 20° SSW 03:08:09 64° WNW 03:13:49 10° N
Iridium 51 4.4 03:05:13 12° S 03:08:11 60° E 03:11:37 10° N
Cosmos 1943 4.2 03:04:08 10° S 03:09:27 42° ESE 03:14:47 10° NE
FENGYUN 3A 3.8 03:05:04 10° N 03:10:25 60° WNW 03:14:21 18° SW
USA 290 3.5 03:10:31 10° NW 03:13:02 23° W 03:13:02 23° W
Cosmos 2263 4.1 03:07:39 10° NNW 03:13:18 81° WSW 03:18:58 10° SSE
Cosmos 1048 Rocket 4.1 03:09:34 16° SSW 03:13:50 81° ESE 03:19:05 10° NNE
UNK 3.9 03:10:15 10° S 03:14:42 53° W 03:19:15 10° NNW
CZ-2C R/B 3.4 03:15:16 10° NNE 03:20:17 48° E 03:25:12 10° S
IRAS Rocket 4.5 03:15:04 10° N 03:20:35 58° WNW 03:25:03 15° SW
Meteor 2-12 Rocket 4.4 03:16:17 13° SSW 03:21:44 70° WNW 03:27:50 10° N
Meteor 1-28 Rocket 4.5 03:23:27 19° WSW 03:24:23 21° W 03:27:15 10° NW
ADEOS II 2.7 03:19:33 10° N 03:24:28 41° WNW 03:28:17 16° SW
EO 1 Delta rocket 4.0 03:21:20 10° N 03:25:54 61° WNW 03:30:33 12° SSW
Cosmos 1302 Rocket 4.2 03:26:36 10° NNW 03:31:50 76° ENE 03:37:01 10° SSE
Cosmos 1707 3.2 03:28:16 10° S 03:31:52 57° E 03:35:31 10° NNE
IRS-1D 4.3 03:27:29 10° NNE 03:32:33 53° E 03:37:40 10° S
Cosmos 1943 Rocket 4.0 03:31:34 10° W 03:32:52 11° W 03:33:18 11° W
CZ-4 R/B 3.8 03:28:50 10° NNE 03:33:34 89° E 03:38:13 10° SSW
Cosmos 1110 Rocket 4.2 03:30:11 10° NNW 03:35:16 49° WSW 03:40:21 10° S
Cosmos 1842 3.1 03:32:26 10° S 03:36:10 88° E 03:39:57 10° N
ATLAS 5 CENTAUR R/B 3.4 03:34:15 10° WNW 03:37:57 19° WSW 03:42:08 10° SSW
YAOGAN 6 3.1 03:34:48 10° NNE 03:38:02 53° E 03:41:17 10° S
Cosmos 1340 Rocket 4.4 03:36:46 14° WSW 03:38:55 20° WNW 03:41:54 10° NNW
Cosmos 2266 Rocket 3.9 03:33:27 10° SSW 03:39:30 79° W 03:45:35 10° N
S3M 4.0 03:35:04 10° NNW 03:41:10 62° W 03:47:20 10° S
SL-16 R/B 2.7 03:36:50 14° WSW 03:41:33 47° NW 03:47:02 10° NNE
SL-08 ROCKET BODY 4.4 03:37:05 10° S 03:43:04 84° W 03:49:12 10° N
Cosmos 1452 Rocket 3.9 03:38:45 10° NW 03:43:39 41° WSW 03:48:31 10° S
ATLAS 2AS CENTAUR R/B 3.2 03:37:01 12° WSW 03:43:43 56° NW 03:50:40 10° NE
CZ-2C R/B 4.2 03:41:43 12° WSW 03:44:04 16° W 03:47:18 10° NW
ALOS 2.8 03:40:07 10° N 03:44:28 41° WNW 03:48:37 11° SW
Cosmos 1515 Rocket 3.8 03:40:28 10° SSW 03:44:49 56° WNW 03:49:12 10° N
Cosmos 1869 Rocket 3.5 03:42:03 10° N 03:46:25 89° WSW 03:50:43 10° S
Cosmos 1470 Rocket 4.5 03:43:37 10° NNW 03:47:28 30° W 03:51:20 10° SSW
Envisat 3.0 03:44:11 10° NNE 03:49:17 79° WNW 03:54:21 10° SSW
SL-16 R/B 3.5 03:46:04 10° SSW 03:51:09 26° W 03:56:16 10° NW
USA 215 3.7 03:54:29 10° ENE 04:00:54 60° NNW 04:07:19 10° W
Meteor 1-22 Rocket 4.2 03:58:31 10° NNW 04:04:08 88° WSW 04:09:30 10° S
Cosmos 2228 Rocket 4.1 04:00:13 10° SSE 04:04:26 49° E 04:08:41 10° NNE
METEOR-M 4.3 03:59:50 10° N 04:05:05 60° WNW 04:10:20 10° SSW
Lacrosse 5 2.2 04:00:16 10° WNW 04:05:25 75° NNE 04:10:32 10° ESE
Cosmos 1674 3.0 04:02:32 10° SW 04:05:46 38° WNW 04:09:02 10° N
Meteor 1-13 Rocket 4.4 04:03:09 10° SSW 04:08:56 84° W 04:14:55 10° NNE
USA 229 DEB 4.0 04:03:23 10° NW 04:10:43 68° SW 04:18:41 10° SSE
USA 229 4.0 04:03:29 10° NW 04:10:48 69° SW 04:18:45 10° SSE
Cosmos 1908 3.3 04:07:35 10° NNW 04:11:07 47° W 04:14:34 10° S
CRYOSAT 2 4.5 04:08:50 10° N 04:13:39 60° W 04:18:25 10° SSW
Cosmos 1933 Rocket 4.4 04:10:33 10° NNW 04:14:19 29° W 04:18:03 10° SSW
Cosmos 1992 Rocket 4.1 04:09:30 10° NNW 04:14:48 86° ENE 04:20:02 10° SSE
Meteor 1-15 Rocket 4.3 04:10:27 10° NNW 04:16:20 72° W 04:22:08 10° S
NOAA 11 4.4 04:11:17 10° N 04:16:38 59° WNW 04:22:00 10° SSW
DMSP B5D2-2 4.2 04:12:19 10° S 04:17:22 52° W 04:22:29 10° NNW
